Retour au catalogue

COSMOS 1275 DEB

ActifPO
NORAD 39949·DEBRIS·🇷🇺 Russia

Lancé Jun 4, 1981 depuis Plesetsk Cosmodrome

Loading…

Prochains Passages (prochaines 24 heures)

TLE

FraisSource: Space-Track

Époque: Sep 12, 2026, 05:56 UTC

1 39949U 81053NK  26255.24775483  .00001245  00000-0  91434-3 0  9997
2 39949  82.8230 245.1908 0027431  22.2249 338.0100 13.94790015 46134

Suivez COSMOS 1275 DEB en temps réel avec AllMySat

Download on the App Store